Flag for Spain Weather past 2 weeks in Sevilla, Spain

Now
68 °F

Passing clouds.


Feels Like: 68 °F
Forecast: 51 / 80 °F
Wind: 3 mph from Northwest

Location: Sevilla / San Pablo

Current Time: Apr 19, 2015 at 3:42:21 PM

Latest Report: Apr 19, 2015 at 3:00 PM


Visibility: N/A

Pressure: 30.01 "Hg

Humidity: 40%

Dew point: 43 °F

Location of SevillaLocation

Historic Weather in Sevilla — Graph

°F

Sevilla temperature yesterday

Maximum temperature yesterday: 73 °F (at 3:30 PM)
Minimum temperature yesterday: 55 °F (at 4:00 AM)
Average temperature yesterday: 64 °F

Past Weeks' High & Low Weather Summary

 TemperatureHumidityPressure
High81 °F (Apr 4, 3:30 PM)100% (Apr 6, 7:30 AM)30.24 "Hg (Apr 6, 7:30 AM)
Low50 °F (Apr 12, 6:30 AM)26% (Apr 4, 5:30 PM)29.74 "Hg (Apr 4, 6:30 PM)
Average63 °F68%30.04 "Hg
* Reported Apr 4 2:00 PM — Apr 19 2:30 PM, Sevilla, Weather by CustomWeather, © 2015

Note: Actual official high and low records may vary slightly from our data, if they occured in-between our weather recording intervals... More about our weather records

Advertising

Sevilla weather history for previous 24 hours

 ConditionsComfort  
Time TempWeatherWind HumidityBarometerVisibility
2:30 PM
Sun, Apr 19
68 °FPassing clouds.3 mph35%30.01 "HgN/A
2:00 PM70 °FSunny.2 mph33%30.04 "Hg10 mi
1:30 PM68 °FSunny.2 mph35%30.04 "Hg10 mi
1:00 PM66 °FPassing clouds.5 mph40%30.04 "HgN/A
12:30 PM66 °FPassing clouds.3 mph43%30.07 "HgN/A
12:00 PM64 °FSunny.2 mph46%30.07 "Hg10 mi
11:30 AM63 °FPassing clouds.3 mph56%30.07 "HgN/A
11:00 AM61 °FPassing clouds.5 mph59%30.07 "HgN/A
10:30 AM61 °FPassing clouds.6 mph55%30.07 "HgN/A
10:00 AM59 °FPassing clouds.7 mph63%30.07 "HgN/A
9:30 AM57 °FSunny.8 mph67%30.07 "Hg10 mi
9:00 AM55 °FSunny.7 mph72%30.07 "Hg10 mi
8:30 AM54 °FClear.6 mph77%30.07 "Hg10 mi
8:00 AM52 °FClear.7 mph82%30.04 "Hg10 mi
7:30 AM52 °FClear.5 mph77%30.04 "Hg10 mi
7:00 AM54 °FClear.6 mph77%30.04 "Hg10 mi
6:30 AM54 °FClear.3 mph77%30.04 "Hg10 mi
6:00 AM52 °FClear.1 mph82%30.04 "Hg10 mi
5:30 AM54 °FClear.1 mph82%30.04 "Hg10 mi
5:00 AM54 °FClear.No wind82%30.04 "Hg10 mi
4:30 AM54 °FClear.No wind82%30.04 "Hg10 mi
4:00 AM55 °FClear.No wind72%30.04 "Hg10 mi
3:30 AM55 °FClear.1 mph72%30.04 "Hg10 mi
1:00 AM57 °FClear.5 mph67%30.04 "Hg10 mi
12:30 AM59 °FClear.2 mph63%30.04 "Hg10 mi
12:00 AM59 °FClear.1 mph63%30.04 "Hg10 mi
11:30 PM
Sat, Apr 18
59 °FClear.3 mph63%30.04 "Hg10 mi
11:00 PM59 °FClear.6 mph63%30.04 "Hg10 mi
10:30 PM59 °FClear.7 mph68%30.01 "Hg10 mi
10:00 PM61 °FSunny.7 mph63%30.01 "Hg10 mi
9:30 PM63 °FSunny.8 mph59%29.98 "Hg10 mi
9:00 PM66 °FPassing clouds.12 mph46%29.98 "HgN/A
8:30 PM68 °FSunny.13 mph40%29.95 "Hg10 mi
8:00 PM70 °FSunny.13 mph38%29.95 "Hg10 mi
7:30 PM72 °FSunny.12 mph36%29.95 "Hg10 mi
7:00 PM73 °FPassing clouds.13 mph38%29.95 "HgN/A
6:30 PM73 °FPassing clouds.9 mph36%29.95 "HgN/A
6:00 PM73 °FPassing clouds.9 mph36%29.95 "HgN/A
5:30 PM73 °FPassing clouds.9 mph36%29.95 "HgN/A
5:00 PM73 °FSunny.6 mph31%29.95 "Hg10 mi
4:30 PM73 °FPassing clouds.8 mph33%29.98 "HgN/A
4:00 PM73 °FPassing clouds.8 mph29%29.98 "HgN/A
3:30 PM73 °FPassing clouds.10 mph33%29.98 "HgN/A
3:00 PM72 °FPassing clouds.9 mph36%29.98 "HgN/A
Weather by CustomWeather, © 2015

See weather overviewHow to use our weather pages